Location: Unspecified
(0.0000°N, 0.0000°E)
Time: 09:52:40
(UTC+02:00)

ATLAS V CENTAUR R/B - Visible Passes

Search period start: 29 July 2016 00:00
Search period end: 08 August 2016 00:00
Orbit: 257 x 28595 km, 18.0° (Epoch: 28 July)

Date Brightness Start Highest point End Pass type
(mag) Time Alt. Az. Time Alt. Az. Time Alt. Az.
29 Jul 7.3 07:20:07 10° WNW 09:22:40 53° WNW 14:44:42 10° SE visible
29 Jul 8.2 23:40:15 13° ENE 23:40:15 13° ENE 23:43:34 10° ENE visible
31 Jul 7.9 00:33:28 28° NE 00:33:28 28° NE 07:13:17 10° ESE visible
01 Aug 7.6 01:26:38 43° NNE 01:26:38 43° NNE 08:28:55 10° ESE visible
02 Aug 7.5 02:19:44 50° N 02:23:54 52° NNE 09:33:57 10° ESE visible
03 Aug 7.6 03:12:46 42° NW 03:30:55 60° NNE 10:34:40 10° ESE visible
04 Aug 8.0 04:05:46 26° NW 08:51:10 85° SE 11:33:07 10° ESE visible
05 Aug 8.3 04:58:41 12° WNW 07:55:56 84° NW 12:30:11 10° ESE visible
05 Aug 3.1 21:09:07 10° W 21:10:52 36° NNW 21:12:58 16° NE visible
06 Aug 8.0 05:56:16 10° WNW 08:07:40 70° WNW 13:26:20 10° ESE visible
06 Aug 4.7 22:04:13 10° WNW 22:05:48 25° NNW 22:05:48 25° NNW visible
07 Aug 7.4 06:56:39 10° WNW 08:55:38 54° WNW 14:21:54 10° ESE visible
07 Aug6.523:19:33ENE23:19:33ENE22:58:34WNWvisible
